Dati Storici

Data ora Umidita' aria (%) Temperatura aria (°C) Rad globale (W/m²) Gonioanemometro (°) Tacoanemometro (m/s) Pioggia (mm)
30-10-2012 13:30 50.6 % 11.182 524.05 19.417 1.782 0
30-10-2012 13:20 50.5 % 10.781 537.332 204.716 0.98 0
30-10-2012 13:10 50.5 % 11.321 555.833 2.821 0.615 0
30-10-2012 13:00 49.9 % 11.39 580.796 151.167 1.023 0
30-10-2012 12:50 51.7 % 11.301 534.952 69.599 0.799 0
30-10-2012 12:40 52.5 % 9.676 535.792 17.264 1.979 0
30-10-2012 12:30 53.5 % 10.222 421.485 64.223 1.18 0
30-10-2012 12:20 53.2 % 9.855 533.868 52.591 2.325 0
30-10-2012 12:10 53.1 % 8.723 362.644 22.419 1.366 0
30-10-2012 12:00 52.6 % 9.926 435.517 66.036 0.603 0
30-10-2012 11:50 54.2 % 9.31 510.546 47.531 1.135 0
30-10-2012 11:40 54.2 % 8.905 475.353 38.273 1.64 0
30-10-2012 11:30 55 % 8.957 513.541 353.358 0.786 0
30-10-2012 11:20 56.4 % 8.327 490.283 97.223 1.55 0
30-10-2012 11:10 56.3 % 7.944 368.332 10.088 3.081 0
30-10-2012 11:00 56.7 % 8.4 468.119 19.59 2.028 0
30-10-2012 10:50 57.8 % 7.206 440.719 35.3 2.115 0
30-10-2012 10:40 58.4 % 7.403 407.41 3.3 2.465 0
30-10-2012 10:30 58.5 % 6.963 412.929 -0.122 2.228 0
30-10-2012 10:20 60.1 % 6.207 386.821 37.05 1.796 0

I dati sono presentati in modo automatico a scopo informativo. In seguito a verifica i dati possono subire modifiche o essere invalidati e non riportati negli archivi definitivi.